Showing default

IMPULSE-1 MIRA, 58301

Orbit data source: Space-Track

IMPULSE-1 MIRA, 58301 is a payload satellite owned by Impulse Space (US) in SSO that was launched on Sat, 11 Nov 2023 UTC via an FALCON 9 launch vehicle from the Air Force Western Test Range (AFWTR). Payload-class satellites include a variety of spacecraft equipped with specific instruments for various scientific and technological missions. These include communications satellites like Starlink; space stations such as the ISS; scientific satellites like the Hubble; Earth observation satellites from companies like Planet Labs, Umbra, and HawkEye 360; GPS; miniature CubeSats for education and research; and military/defense satellites.

Loading next visibility...
Identifier
58301, 2023-174AX
Orbit
SSO
Country
Flag of USUS
Related business
Manufacturer
Impulse Space
Mission
Operational Commercial Technology
Bus & Motor
MIRA, AOCS
Mass
250 kg wet, 200 kg dry
Launch date (UTC)
2023-11-11 (2 years ago)
Launch vehicle
FALCON 9
Launch site
Air Force Western Test Range (AFWTR)
Object type
Payload
Rocket body
Debris
Shape & HBR
Box, 1.2 m
Radar Cross Section
0.575 m², Large (>1 m²)

Expand to show TLE details & history
Last TLE update: 15 hours ago

TLE from 15 hours ago
0 IMPULSE-1 MIRA
1 58301U 23174AX  25289.12974459  .00014051  00000-0  46800-3 0  9993
2 58301  97.5418   5.6745 0084415 268.0663  91.0907 15.27791463107530
Epoch: 2025-10-16T03:06Z
TLE epoch observation values (Epoch: 2025-10-16T03:06:49.932Z)
Latitude
-0.00001°
Longitude
-65.92744°
Altitude
487.104 km
Speed
7.621 km/s
True Right ascension
00h 22m 41s
True Declination
0° 00' 00"
Sunlit
Object was in full shadow at epoch
Visualization orbit readout
Latitude
Unknown
Longitude
Unknown
Altitude
Unknown
Speed
Unknown
Apparent Right ascension
Unknown
Apparent Declination
Unknown
Sunlit
N/A
Visualization observer readout
Local Sidereal Time
12:47:02
Azimuth
Unknown
Elevation
Unknown
Doppler factor
Unknown
Orbital elements
Apogee altitude
537.265 km
Perigee altitude
421.489 km
Semi-major axis
6,857.514 km
Eccentricity
0.00844
Inclination
97.5418°
RAAN
5.6745°
Arg. of periapsis
268.0663°
True anomaly
92.05761°
Mean anomaly
91.0907°
Eccentric anomaly
91.57418°
Mean motion
3.82202 °/min
Orbital period
94.19 mins
BSTAR
0.000468
Loading maneuver chart data...
Computing Atmospheric mass density...

Documentation

Showing up to 5 results
|